Location: Multiple Mirror Telescope
(31.6889°N, 110.8853°W)
Time: 21:41:21
(UTC-07:00)

Hubble Space Telescope - Visible Passes

Search period start: 27 May 2024 00:00
Search period end: 06 June 2024 00:00
Orbit: 511 x 515 km, 28.5° (Epoch: 27 May)

Date Brightness Start Highest point End Pass type
(mag) Time Alt. Az. Time Alt. Az. Time Alt. Az.
27 May 1.2 20:20:06 10° WSW 20:23:50 39° SSE 20:26:12 19° ESE visible
27 May 3.2 22:00:22 10° WSW 22:01:03 14° WSW 22:01:03 14° WSW visible
28 May 1.2 20:01:16 10° WSW 20:05:03 42° S 20:08:41 11° E visible
28 May 2.3 21:41:34 10° W 21:43:31 26° WSW 21:43:31 26° WSW visible
29 May 1.3 21:22:46 10° W 21:25:52 43° SW 21:25:52 43° SW visible
30 May 0.8 21:03:59 10° W 21:07:51 50° S 21:08:07 49° S visible
31 May 1.0 20:45:11 10° W 20:49:02 48° S 20:50:18 34° SE visible
01 Jun 1.1 20:26:22 10° W 20:30:12 45° S 20:32:25 22° SE visible
02 Jun 1.3 20:07:33 10° W 20:11:21 43° S 20:14:31 14° ESE visible
02 Jun 3.2 21:48:45 10° WSW 21:49:20 12° WSW 21:49:20 12° WSW visible
03 Jun 1.4 19:48:45 10° W 19:52:30 40° SSW 19:56:15 10° ESE visible
03 Jun 2.9 21:30:07 10° WSW 21:31:25 15° SW 21:31:25 15° SW visible
04 Jun 2.8 21:11:33 10° WSW 21:13:30 14° SSW 21:13:30 14° SSW visible
05 Jun 2.9 20:53:05 10° SW 20:54:53 13° SSW 20:55:35 12° SSW visible
